TimeMDT,TemperatureF,Dew PointF,Humidity,Sea Level PressureIn,VisibilityMPH,Wind Direction,Wind SpeedMPH,Gust SpeedMPH,PrecipitationIn,Events,Conditions,WindDirDegrees,DateUTC
12:14 AM,32.0,19.4,60,30.20,10.0,South,12.7,-,N/A,,Clear,170,2013-04-25 06:14:00
12:34 AM,32.0,19.4,60,30.20,10.0,South,13.8,-,N/A,,Clear,180,2013-04-25 06:34:00
12:54 AM,32.0,19.4,60,30.19,10.0,South,15.0,-,N/A,,Clear,180,2013-04-25 06:54:00
1:14 AM,32.0,19.4,60,30.18,10.0,South,13.8,-,N/A,,Clear,180,2013-04-25 07:14:00
1:34 AM,32.0,17.6,55,30.18,10.0,South,13.8,-,N/A,,Clear,180,2013-04-25 07:34:00
1:54 AM,32.0,17.6,55,30.17,10.0,South,15.0,-,N/A,,Clear,180,2013-04-25 07:54:00
2:14 AM,32.0,17.6,55,30.17,10.0,South,11.5,-,N/A,,Clear,180,2013-04-25 08:14:00
2:34 AM,32.0,17.6,55,30.16,10.0,South,12.7,-,N/A,,Clear,190,2013-04-25 08:34:00
2:54 AM,32.0,15.8,51,30.15,10.0,South,16.1,-,N/A,,Clear,180,2013-04-25 08:54:00
3:14 AM,32.0,15.8,51,30.14,10.0,South,16.1,-,N/A,,Clear,170,2013-04-25 09:14:00
3:34 AM,32.0,15.8,51,30.13,10.0,South,15.0,23.0,N/A,,Clear,170,2013-04-25 09:34:00
3:54 AM,32.0,14.0,48,30.13,10.0,SSE,13.8,-,N/A,,Clear,160,2013-04-25 09:54:00
4:14 AM,32.0,15.8,51,30.13,10.0,South,12.7,-,N/A,,Clear,170,2013-04-25 10:14:00
4:34 AM,32.0,14.0,48,30.13,10.0,SSE,8.1,-,N/A,,Clear,160,2013-04-25 10:34:00
4:53 AM,30.2,17.6,60,30.13,10.0,South,8.1,-,N/A,,Clear,190,2013-04-25 10:53:00
5:14 AM,30.2,17.6,60,30.13,10.0,SW,9.2,-,N/A,,Clear,220,2013-04-25 11:14:00
5:34 AM,30.2,15.8,55,30.12,10.0,SSW,4.6,-,N/A,,Clear,200,2013-04-25 11:34:00
5:53 AM,30.2,15.8,55,30.12,10.0,South,4.6,-,N/A,,Clear,170,2013-04-25 11:53:00
6:13 AM,28.4,15.8,59,30.12,10.0,SE,5.8,-,N/A,,Clear,140,2013-04-25 12:13:00
6:34 AM,28.4,15.8,59,30.12,10.0,South,4.6,-,N/A,,Clear,170,2013-04-25 12:34:00
6:54 AM,30.2,19.4,64,30.11,10.0,SSW,6.9,-,N/A,,Clear,200,2013-04-25 12:54:00
7:14 AM,33.8,19.4,56,30.11,10.0,SSW,8.1,-,N/A,,Clear,200,2013-04-25 13:14:00
7:34 AM,37.4,19.4,48,30.11,10.0,SSW,4.6,-,N/A,,Clear,210,2013-04-25 13:34:00
7:54 AM,41.0,19.4,42,30.10,10.0,SW,6.9,-,N/A,,Clear,230,2013-04-25 13:54:00
8:14 AM,42.8,19.4,39,30.10,10.0,WSW,8.1,-,N/A,,Clear,250,2013-04-25 14:14:00
8:34 AM,42.8,19.4,39,30.11,10.0,WSW,6.9,-,N/A,,Clear,250,2013-04-25 14:34:00
8:54 AM,44.6,17.6,34,30.10,10.0,West,9.2,-,N/A,,Clear,260,2013-04-25 14:54:00
9:14 AM,46.4,14.0,27,30.10,10.0,WNW,8.1,-,N/A,,Clear,300,2013-04-25 15:14:00
9:34 AM,48.2,14.0,25,30.10,10.0,WNW,4.6,-,N/A,,Clear,290,2013-04-25 15:34:00
9:54 AM,50.0,10.4,20,30.09,10.0,Calm,Calm,-,N/A,,Clear,0,2013-04-25 15:54:00
10:13 AM,50.0,12.2,22,30.09,10.0,North,4.6,-,N/A,,Clear,10,2013-04-25 16:13:00
10:34 AM,50.0,10.4,20,30.09,10.0,North,4.6,-,N/A,,Clear,360,2013-04-25 16:34:00
10:54 AM,51.8,10.4,19,30.09,10.0,Calm,Calm,-,N/A,,Clear,0,2013-04-25 16:54:00
11:14 AM,51.8,12.2,21,30.08,10.0,East,3.5,-,N/A,,Clear,100,2013-04-25 17:14:00
11:34 AM,53.6,14.0,21,30.07,10.0,ESE,5.8,-,N/A,,Clear,110,2013-04-25 17:34:00
11:54 AM,53.6,14.0,21,30.07,10.0,Calm,Calm,-,N/A,,Clear,0,2013-04-25 17:54:00
12:14 PM,55.4,17.6,23,30.05,10.0,ESE,3.5,-,N/A,,Clear,110,2013-04-25 18:14:00
12:34 PM,57.2,15.8,20,30.04,10.0,NE,4.6,-,N/A,,Clear,50,2013-04-25 18:34:00
12:54 PM,59.0,19.4,22,30.04,10.0,East,6.9,-,N/A,,Clear,100,2013-04-25 18:54:00
1:14 PM,57.2,21.2,25,30.03,10.0,East,10.4,20.7,N/A,,Clear,100,2013-04-25 19:14:00
1:34 PM,59.0,19.4,22,30.02,10.0,SSE,10.4,16.1,N/A,,Clear,150,2013-04-25 19:34:00
1:54 PM,59.0,19.4,22,30.01,10.0,SE,12.7,19.6,N/A,,Clear,130,2013-04-25 19:54:00
2:14 PM,59.0,19.4,22,30.01,10.0,SSE,11.5,17.3,N/A,,Clear,150,2013-04-25 20:14:00
2:34 PM,55.4,19.4,25,30.00,10.0,SE,6.9,-,N/A,,Clear,130,2013-04-25 20:34:00
2:54 PM,55.4,21.2,26,29.99,10.0,SE,10.4,-,N/A,,Clear,140,2013-04-25 20:54:00
3:13 PM,55.4,21.2,26,29.99,10.0,SSE,9.2,17.3,N/A,,Scattered Clouds,160,2013-04-25 21:13:00
3:33 PM,55.4,21.2,26,29.97,10.0,SE,15.0,-,N/A,,Scattered Clouds,140,2013-04-25 21:33:00
3:54 PM,55.4,21.2,26,29.96,10.0,SE,12.7,-,N/A,,Scattered Clouds,130,2013-04-25 21:54:00
4:13 PM,55.4,21.2,26,29.96,10.0,WSW,11.5,28.8,N/A,,Mostly Cloudy,240,2013-04-25 22:13:00
4:34 PM,55.4,21.2,26,29.97,10.0,South,11.5,26.5,N/A,,Mostly Cloudy,190,2013-04-25 22:34:00
4:54 PM,53.6,26.6,35,29.97,10.0,South,23.0,28.8,N/A,,Scattered Clouds,180,2013-04-25 22:54:00
5:14 PM,53.6,26.6,35,29.98,10.0,SSW,21.9,28.8,N/A,,Scattered Clouds,200,2013-04-25 23:14:00
5:34 PM,50.0,28.4,43,30.00,10.0,South,18.4,35.7,N/A,,Scattered Clouds,190,2013-04-25 23:34:00
5:54 PM,50.0,30.2,47,30.01,10.0,South,20.7,27.6,N/A,,Scattered Clouds,180,2013-04-25 23:54:00
6:14 PM,50.0,32.0,50,30.00,10.0,South,19.6,-,N/A,,Scattered Clouds,170,2013-04-26 00:14:00
6:34 PM,46.4,33.8,62,29.99,10.0,South,15.0,-,N/A,,Clear,170,2013-04-26 00:34:00
6:53 PM,46.4,33.8,62,29.97,10.0,SSE,10.4,-,N/A,,Clear,160,2013-04-26 00:53:00
7:13 PM,46.4,33.8,62,29.96,10.0,SSE,11.5,-,N/A,,Clear,160,2013-04-26 01:13:00
7:34 PM,44.6,32.0,61,29.97,10.0,SSE,5.8,-,N/A,,Clear,150,2013-04-26 01:34:00
7:54 PM,42.8,32.0,66,29.97,10.0,SSE,3.5,-,N/A,,Clear,150,2013-04-26 01:54:00
8:14 PM,41.0,32.0,70,29.99,10.0,SW,5.8,-,N/A,,Clear,220,2013-04-26 02:14:00
8:33 PM,41.0,32.0,70,29.99,10.0,WSW,9.2,-,N/A,,Clear,240,2013-04-26 02:33:00
8:54 PM,41.0,30.2,65,30.00,10.0,WSW,10.4,-,N/A,,Clear,240,2013-04-26 02:54:00
9:14 PM,41.0,28.4,61,30.01,10.0,WSW,11.5,-,N/A,,Clear,250,2013-04-26 03:14:00
9:33 PM,42.8,26.6,53,30.02,10.0,West,10.4,-,N/A,,Clear,280,2013-04-26 03:33:00
9:54 PM,42.8,26.6,53,30.04,10.0,WNW,8.1,-,N/A,,Clear,300,2013-04-26 03:54:00
10:14 PM,41.0,28.4,61,30.04,10.0,Calm,Calm,-,N/A,,Clear,0,2013-04-26 04:14:00
10:34 PM,41.0,28.4,61,30.04,10.0,Calm,Calm,-,N/A,,Clear,0,2013-04-26 04:34:00
10:54 PM,37.4,28.4,70,30.05,10.0,SW,4.6,-,N/A,,Clear,220,2013-04-26 04:54:00
11:14 PM,37.4,30.2,75,30.05,10.0,West,8.1,-,N/A,,Clear,280,2013-04-26 05:14:00
11:33 PM,37.4,28.4,70,30.05,10.0,West,8.1,-,N/A,,Clear,280,2013-04-26 05:33:00
11:54 PM,37.4,28.4,70,30.06,10.0,WNW,6.9,-,N/A,,Clear,290,2013-04-26 05:54:00